Stations météo

Publicité
St-Auban-Sur-Durance, France (7588): Température de l'air & dewpoint: 18.02.2019 00:00:00 - 24.02.2019 00:00:00 (CET)St-Auban-Sur-Durance, France (7588): Température de l'air 5cm: 18.02.2019 00:00:00 - 24.02.2019 00:00:00 (CET)St-Auban-Sur-Durance, France (7588): Température de l'air -20cm: 18.02.2019 00:00:00 - 24.02.2019 00:00:00 (CET)St-Auban-Sur-Durance, France (7588): Vitesse du vent & gusts: 18.02.2019 00:00:00 - 24.02.2019 00:00:00 (CET)St-Auban-Sur-Durance, France (7588): Direction du vent: 18.02.2019 00:00:00 - 24.02.2019 00:00:00 (CET)St-Auban-Sur-Durance, France (7588): reduced air pressure: 18.02.2019 00:00:00 - 24.02.2019 00:00:00 (CET)St-Auban-Sur-Durance, France (7588): visibility: 18.02.2019 00:00:00 - 24.02.2019 00:00:00 (CET)St-Auban-Sur-Durance, France (7588): Ensoleillement: 18.02.2019 00:00:00 - 24.02.2019 00:00:00 (CET)St-Auban-Sur-Durance, France (7588): Quantités de précipitations: 18.02.2019 00:00:00 - 24.02.2019 00:00:00 (CET)
Date & Time tt [°C] td [°C] tt 5cm [°C] tt -20cm [°C] ff [km/h] ff [knt] fx [km/h] fx [knt] dd ppp [hPa] vv [km] sd [min] rr [mm]
24.02.2019 00:00:00 3,7 2,8 2,6 8,1 0 0 10 6 N 1032,7 10 0 0,0
23.02.2019 23:00:00 4,5 3,3 3,6 8,1 4 2 14 7 WNW 1031,9 11 0 0,0
23.02.2019 22:00:00 6,3 4,8 6,3 8,2 9 5 21 11 WSW 1031,0 14 0 0,0
23.02.2019 21:00:00 8,1 5,6 7,3 8,2 12 6 22 12 WSW 1029,9 16 0 0,0
23.02.2019 20:00:00 9,5 6,2 9,2 8,2 14 8 18 10 W 1028,9 18 0 0,0
23.02.2019 19:00:00 11,7 6,4 10,7 8,1 13 7 23 12 SW 1027,8 20 0 0,0
23.02.2019 18:00:00 14,3 6,4 13,6 7,9 10 5 32 18 SSW 1026,1 20 43 0,0
23.02.2019 17:00:00 16,8 5,4 19,3 7,7 23 13 34 19 SW 1025,0 20 56 0,0
23.02.2019 16:00:00 18,8 2,2 22,1 7,4 22 12 32 17 SW 1024,8 20 60 0,0
23.02.2019 15:00:00 19,3 0,3 23,9 7,1 19 10 29 15 SW 1024,4 20 60 0,0
23.02.2019 14:00:00 19,1 -0,4 24,7 6,8 15 8 22 12 SSW 1024,5 20 60 0,0
23.02.2019 13:00:00 18,1 0,7 22,6 6,5 3 2 13 7 S 1025,7 19 60 0,0
23.02.2019 12:00:00 15,8 0,0 19,8 6,5 4 2 19 11 E 1026,8 20 60 0,0
23.02.2019 11:00:00 12,5 0,6 16,3 6,4 8 5 26 14 NNE 1027,8 20 60 0,0
23.02.2019 10:00:00 10,0 0,3 12,1 6,5 13 7 25 14 NNE 1028,6 20 60 0,0
23.02.2019 09:00:00 7,1 -0,1 5,8 6,6 6 3 12 7 ESE 1029,4 20 60 0,0
23.02.2019 08:00:00 4,6 -1,0 2,1 6,7 4 2 16 9 ESE 1029,6 20 15 0,0
23.02.2019 07:00:00 2,9 -1,5 1,8 6,8 7 4 19 10 ESE 1029,5 20 0 0,0
23.02.2019 06:00:00 3,5 -1,3 2,4 6,9 8 4 16 9 ESE 1029,3 20 0 0,0
23.02.2019 05:00:00 4,0 -1,2 2,7 7,0 4 2 15 8 E 1029,2 20 0 0,0
23.02.2019 04:00:00 4,4 -1,0 3,6 7,1 5 3 15 8 ESE 1029,1 20 0 0,0
23.02.2019 03:00:00 6,8 0,7 4,5 7,2 5 3 16 9 E 1028,8 20 0 0,0
23.02.2019 02:00:00 5,9 -0,8 5,1 7,2 4 2 20 11 ENE 1028,9 20 0 0,0
23.02.2019 01:00:00 6,8 -0,4 4,6 7,3 8 5 17 9 E 1028,8 20 0 0,0
23.02.2019 00:00:00 6,4 -0,4 4,8 7,4 6 3 18 10 SE 1028,4 20 0 0,0
22.02.2019 23:00:00 11,0 1,0 9,4 7,4 7 4 21 11 ENE 1026,6 20 0 0,0
22.02.2019 22:00:00 11,9 1,2 11,4 7,4 11 6 30 16 NE 1025,5 20 0 0,0
22.02.2019 21:00:00 13,3 1,0 12,7 7,4 17 9 29 16 NNE 1024,7 20 0 0,0
22.02.2019 20:00:00 13,8 0,8 12,9 7,3 13 7 32 18 NNE 1024,0 20 0 0,0
22.02.2019 19:00:00 14,7 0,5 13,8 7,2 22 12 34 18 N 1023,3 20 0 0,0
22.02.2019 18:00:00 16,8 -0,4 15,9 7,1 13 7 27 14 N 1022,3 20 41 0,0
22.02.2019 17:00:00 18,5 -0,9 21,9 6,8 20 11 33 18 NNW 1022,2 20 60 0,0
22.02.2019 16:00:00 19,2 -1,3 22,9 6,5 21 11 33 18 N 1022,0 20 60 0,0
22.02.2019 15:00:00 18,9 -0,5 23,2 6,3 20 11 32 18 N 1022,2 20 60 0,0
22.02.2019 14:00:00 17,9 -0,9 21,7 6,0 20 11 44 24 N 1022,8 20 60 0,0
22.02.2019 13:00:00 16,7 -1,0 19,7 5,8 28 15 51 28 N 1023,5 20 60 0,0
22.02.2019 12:00:00 14,6 -1,1 16,6 5,7 24 13 48 26 NNE 1025,0 20 60 0,0
22.02.2019 11:00:00 12,0 -0,9 15,0 5,7 23 13 44 24 NNE 1026,2 20 60 0,0
22.02.2019 10:00:00 10,0 -1,1 9,1 5,7 14 8 30 16 ENE 1027,1 20 50 0,0
22.02.2019 09:00:00 8,0 -1,0 6,5 5,8 14 8 33 18 E 1027,7 20 60 0,0
22.02.2019 08:00:00 5,5 -1,2 2,6 5,9 10 6 18 10 E 1027,8 20 13 0,0
22.02.2019 07:00:00 4,1 -1,3 2,8 6,0 9 5 20 11 E 1027,7 20 0 0,0
22.02.2019 06:00:00 2,9 -1,1 2,9 6,1 7 4 26 14 ENE 1027,8 20 0 0,0
22.02.2019 05:00:00 3,2 -0,4 2,5 6,1 5 3 20 11 E 1027,7 20 0 0,0
22.02.2019 04:00:00 3,2 0,1 2,4 6,3 10 5 22 12 E 1028,0 20 0 0,0
22.02.2019 03:00:00 2,6 1,1 -0,6 6,4 7 4 24 13 E 1028,4 16 0 0,0
22.02.2019 02:00:00 1,7 1,3 -0,8 6,5 5 3 16 8 E 1029,0 17 0 0,0
22.02.2019 01:00:00 1,0 0,7 -0,7 6,6 2 1 8 5 E 1029,7 5 0 0,0
22.02.2019 00:00:00 1,7 1,0 0,3 6,8 0 0 11 6 N 1029,8 5 0 0,0
21.02.2019 23:00:00 2,5 1,8 1,2 6,8 5 3 9 5 ENE 1030,0 6 0 0,0
21.02.2019 22:00:00 3,6 2,4 2,0 6,9 0 0 7 4 N 1029,9 10 0 0,0
21.02.2019 21:00:00 5,4 3,4 4,0 6,9 0 0 4 2 N 1029,2 15 0 0,0
21.02.2019 20:00:00 7,7 4,8 6,2 6,9 0 0 12 6 N 1028,4 19 0 0,0
21.02.2019 19:00:00 9,0 5,2 7,4 6,8 6 4 13 7 W 1028,1 20 0 0,0
21.02.2019 18:00:00 12,0 5,4 11,6 6,6 10 5 26 14 SW 1027,1 20 40 0,0
21.02.2019 17:00:00 13,9 4,5 17,0 6,4 18 10 25 14 SW 1026,5 19 60 0,0
21.02.2019 16:00:00 15,0 1,1 19,3 6,1 17 9 23 12 SW 1026,5 20 60 0,0
21.02.2019 15:00:00 14,8 1,7 20,0 5,8 13 7 22 12 SW 1026,6 20 60 0,0
21.02.2019 14:00:00 14,1 3,2 20,0 5,5 12 7 20 11 SW 1027,0 20 60 0,0
21.02.2019 13:00:00 13,2 2,7 19,2 5,3 7 4 16 8 SSW 1027,6 20 60 0,0
21.02.2019 12:00:00 11,8 0,5 16,7 5,2 4 2 10 6 WSW 1028,7 20 60 0,0
21.02.2019 11:00:00 8,5 -0,8 11,3 5,1 3 2 26 14 SE 1029,5 20 60 0,0
21.02.2019 10:00:00 5,4 -0,4 6,7 5,2 4 2 9 5 ESE 1030,2 20 60 0,0
21.02.2019 09:00:00 2,6 0,0 1,2 5,4 3 1 9 5 SE 1030,6 20 60 0,0
21.02.2019 08:00:00 -0,8 -1,4 -2,9 5,5 4 2 9 5 E 1031,0 20 11 0,0
21.02.2019 07:00:00 -1,7 -2,4 -2,6 5,6 6 3 15 8 ESE 1030,6 20 0 0,0
21.02.2019 06:00:00 -0,2 -0,9 -2,1 5,8 5 3 8 4 ENE 1030,1 17 0 0,0
21.02.2019 05:00:00 -0,7 -1,3 -1,9 5,9 4 2 8 4 E 1029,9 15 0 0,0
21.02.2019 04:00:00 -0,8 -1,5 -1,4 6,0 5 3 10 6 ENE 1029,9 12 0 0,0
21.02.2019 03:00:00 0,7 -0,2 -0,8 6,1 7 4 10 5 NNE 1029,6 19 0 0,0
21.02.2019 02:00:00 -0,1 -0,7 -1,2 6,2 8 5 11 6 ENE 1029,7 13 0 0,0
21.02.2019 01:00:00 0,1 -0,6 -1,1 6,3 5 3 10 5 ENE 1029,3 12 0 0,0
21.02.2019 00:00:00 0,9 0,0 -0,2 6,4 6 3 10 5 NE 1028,8 10 0 0,0
20.02.2019 23:00:00 1,6 0,4 0,1 6,5 5 3 9 5 NE 1028,4 13 0 0,0
20.02.2019 22:00:00 2,4 0,9 1,0 6,6 0 0 4 2 N 1028,0 15 0 0,0
20.02.2019 21:00:00 3,9 1,4 2,6 6,6 0 0 8 4 N 1027,4 20 0 0,0
20.02.2019 20:00:00 5,1 1,6 3,4 6,6 0 0 5 3 N 1026,5 20 0 0,0
20.02.2019 19:00:00 7,5 2,6 4,8 6,5 3 2 16 8 WNW 1025,6 20 0 0,0
20.02.2019 18:00:00 10,8 2,9 10,5 6,4 14 8 23 12 SW 1024,2 20 39 0,0
20.02.2019 17:00:00 12,9 1,8 16,2 6,1 15 8 19 10 SW 1023,4 20 60 0,0
20.02.2019 16:00:00 14,1 -0,4 18,7 5,9 12 6 18 10 SW 1023,3 20 60 0,0
20.02.2019 15:00:00 13,3 0,3 18,7 5,6 10 6 19 10 SW 1023,6 20 60 0,0
20.02.2019 14:00:00 12,5 1,2 18,4 5,3 10 5 20 11 SW 1024,1 20 60 0,0
20.02.2019 13:00:00 11,5 1,1 16,2 5,1 4 2 10 6 SSW 1024,7 20 60 0,0
20.02.2019 12:00:00 9,6 -1,2 13,9 5,0 4 2 17 9 NE 1025,6 20 60 0,0
20.02.2019 11:00:00 6,5 -0,5 9,1 5,0 11 6 19 10 NE 1026,4 20 60 0,0
20.02.2019 10:00:00 3,5 0,5 6,2 5,1 7 4 11 6 ENE 1026,7 20 60 0,0
20.02.2019 09:00:00 0,5 -0,8 -0,4 5,2 4 2 10 5 NNE 1027,3 20 60 0,0
20.02.2019 08:00:00 -1,8 -2,1 -3,2 5,3 5 3 10 5 NE 1027,3 12 10 0,0
20.02.2019 07:00:00 -2,3 -2,7 -4,0 5,5 7 4 13 7 NNE 1027,0 12 0 0,0
20.02.2019 06:00:00 -2,7 -3,2 -3,8 5,6 8 4 11 6 NNE 1026,9 13 0 0,0
20.02.2019 05:00:00 -2,0 -2,3 -3,4 5,7 6 3 10 6 NE 1026,7 10 0 0,0
20.02.2019 04:00:00 -2,0 -2,4 -3,4 5,9 8 4 11 6 NE 1026,8 10 0 0,0
20.02.2019 03:00:00 -1,6 -2,2 -3,0 6,0 6 3 13 7 ENE 1026,9 9 0 0,0
20.02.2019 02:00:00 -1,2 -1,8 -2,0 6,1 4 2 10 5 NE 1026,4 11 0 0,0
20.02.2019 01:00:00 -0,6 -1,2 -1,8 6,2 5 3 9 5 NE 1026,2 10 0 0,0
20.02.2019 00:00:00 0,0 -0,9 -1,1 6,3 7 4 14 8 NNE 1025,8 12 0 0,0
19.02.2019 23:00:00 0,5 -0,8 -0,3 6,5 0 0 9 5 N 1025,4 14 0 0,0
19.02.2019 22:00:00 2,0 0,5 0,7 6,5 5 3 13 7 ESE 1024,8 20 0 0,0
19.02.2019 21:00:00 2,7 0,3 1,5 6,5 8 4 12 7 ESE 1024,3 20 0 0,0
19.02.2019 20:00:00 4,5 1,3 3,2 6,5 2 1 9 5 W 1023,5 20 0 0,0
19.02.2019 19:00:00 7,0 2,1 5,0 6,5 8 4 18 10 WSW 1022,5 20 0 0,0
19.02.2019 18:00:00 10,0 3,0 9,6 6,3 15 8 23 13 SW 1021,4 20 38 0,0
19.02.2019 17:00:00 11,8 3,3 15,2 6,1 16 8 25 13 SSW 1020,9 20 60 0,0
19.02.2019 16:00:00 12,2 3,2 16,7 5,9 16 9 27 15 SSW 1020,9 20 60 0,0
19.02.2019 15:00:00 12,0 3,2 17,8 5,5 16 8 23 13 SSW 1021,2 20 60 0,0
19.02.2019 14:00:00 12,0 2,2 16,9 5,2 13 7 20 11 SW 1021,6 20 60 0,0
19.02.2019 13:00:00 10,6 2,7 16,8 5,1 12 6 20 11 SW 1022,6 20 60 0,0
19.02.2019 12:00:00 9,4 1,1 15,3 5,0 3 2 13 7 WSW 1023,8 20 60 0,0
19.02.2019 11:00:00 7,5 -0,7 8,7 5,0 4 2 11 6 E 1024,6 20 60 0,0
19.02.2019 10:00:00 2,6 -1,2 5,6 5,1 5 3 11 6 E 1025,7 20 60 0,0
19.02.2019 09:00:00 -0,1 -2,2 -0,1 5,2 5 3 10 5 NNE 1026,2 20 60 0,0
19.02.2019 08:00:00 -2,5 -3,3 -4,8 5,4 4 2 9 5 E 1026,1 20 8 0,0
19.02.2019 07:00:00 -2,7 -3,7 -4,0 5,5 4 2 6 4 ENE 1025,9 20 0 0,0
19.02.2019 06:00:00 -2,5 -3,5 -3,9 5,6 0 0 8 4 N 1025,8 20 0 0,0
19.02.2019 05:00:00 -2,3 -3,3 -4,0 5,8 5 3 8 5 NE 1025,9 20 0 0,0
19.02.2019 04:00:00 -1,3 -2,4 -3,5 5,9 5 3 11 6 NE 1025,6 20 0 0,0
19.02.2019 03:00:00 -2,2 -3,3 -3,2 6,0 9 5 14 8 NNE 1026,0 20 0 0,0
19.02.2019 02:00:00 -1,4 -2,5 -2,6 6,2 7 4 11 6 NE 1026,1 20 0 0,0
19.02.2019 01:00:00 -0,9 -2,0 -2,0 6,3 8 4 13 7 NNE 1026,4 20 0 0,0
19.02.2019 00:00:00 0,2 -1,4 -1,2 6,4 4 2 9 5 E 1026,3 20 0 0,0
18.02.2019 23:00:00 0,3 -1,6 -0,5 6,5 3 1 10 5 NE 1026,3 20 0 0,0
18.02.2019 22:00:00 1,9 -0,7 0,8 6,6 7 4 15 8 SE 1025,8 20 0 0,0
18.02.2019 21:00:00 3,5 -0,2 1,8 6,7 7 4 17 9 ESE 1025,1 20 0 0,0
18.02.2019 20:00:00 5,1 0,3 3,4 6,7 9 5 18 10 SE 1024,5 20 0 0,0
18.02.2019 19:00:00 5,8 0,3 4,1 6,6 0 0 8 5 N 1024,2 16 0 0,0
18.02.2019 18:00:00 10,3 1,1 8,8 6,5 7 4 14 8 SSW 1022,8 20 37 0,0
18.02.2019 17:00:00 13,1 1,1 16,7 6,3 9 5 21 11 SW 1022,3 20 60 0,0
18.02.2019 16:00:00 13,3 1,6 17,6 6,0 15 8 26 14 SSW 1022,5 20 60 0,0
18.02.2019 15:00:00 12,7 2,5 16,8 5,8 19 10 29 16 SSW 1022,9 20 60 0,0
18.02.2019 14:00:00 12,1 2,3 17,5 5,5 15 8 26 14 SW 1023,6 20 60 0,0
18.02.2019 13:00:00 11,0 2,0 17,2 5,4 17 9 25 13 SW 1024,8 20 60 0,0
18.02.2019 12:00:00 10,0 2,1 14,0 5,2 10 5 16 8 SSW 1025,8 20 60 0,0
18.02.2019 11:00:00 6,8 1,1 9,8 5,3 5 3 12 6 ENE 1026,7 20 60 0,0
18.02.2019 10:00:00 3,7 1,1 5,1 5,3 6 4 12 6 NNE 1027,7 20 60 0,0
18.02.2019 09:00:00 0,1 -0,6 -0,7 5,5 8 4 11 6 NNE 1028,6 18 60 0,0
18.02.2019 08:00:00 -2,3 -2,9 -3,9 5,6 7 4 13 7 NE 1029,1 16 7 0,0
18.02.2019 07:00:00 -2,3 -2,9 -3,9 5,7 9 5 13 7 NE 1028,8 14 0 0,0
18.02.2019 06:00:00 -1,3 -1,7 -2,7 5,9 9 5 15 8 NNE 1028,5 19 0 0,0
18.02.2019 05:00:00 -1,2 -1,8 -2,5 6,0 9 5 13 7 NNE 1028,6 16 0 0,0
18.02.2019 04:00:00 -0,8 -1,4 -2,0 6,1 8 5 11 6 NNE 1028,7 15 0 0,0
18.02.2019 03:00:00 -0,1 -1,1 -1,6 6,2 6 3 11 6 NE 1029,1 19 0 0,0
18.02.2019 02:00:00 1,4 0,1 -0,1 6,4 7 4 25 14 NNE 1029,2 20 0 0,0
18.02.2019 01:00:00 2,8 0,5 2,7 6,5 11 6 21 11 ESE 1029,0 20 0 0,0
18.02.2019 00:00:00 2,9 0,8 1,3 6,6 10 5 19 10 ESE 1029,1 20 0 0,0

tt = Température de l'air
td = dewpoint
tt 5cm = Température de l'air 5cm
tt -20cm = Température de l'air -20cm
ff = Vitesse du vent
fx = gusts
dd = Direction du vent
ppp = reduced air pressure
vv = visibility
sd = Ensoleillement
rr = Quantités de précipitations

stations d'obs. à proximité